Orbital Elements at Epoch 2459200.5 (2020-Dec-17.0) TDB
Reference: JPL 25 (heliocentric ecliptic J2000)
Element | Value | Uncertainty (1-sigma) | Units |
e | .02764787350946585 | 3.6255e-08 | |
a | 3.164255387105623 | 2.0778e-08 | au |
q | 3.076770454411281 | 1.2081e-07 | au |
i | 9.539063445428672 | 5.5646e-06 | deg |
node | 168.3978002814113 | 2.2442e-05 | deg |
peri | 81.05979170700223 | 0.00010153 | deg |
M | 322.2591703178739 | 0.00010006 | deg |
tp | 2459416.033440581308 (2021-Jul-20.53344058) | 0.00057176 | TDB |
period | 2055.917669611223 5.63 | 2.025e-05 5.544e-08 | d yr |
n | .175104288134299 | 1.7247e-09 | deg/d |
Q | 3.251740319799965 | 2.1353e-08 | au |
|
| | Orbit Determination Parameters
Additional Information
|